Inquirer Daily News

Weather

Get conditions and forecasts for any City, State, ZIP code or Country:  
Trenton, NJ
on Sunday, February 3, 2013

Sunday
Previous Day Next Day
Daily Summary
 ActualAverageRecord
Temperature
Mean Temperature °F 32°F  
Max Temperature 31°F 40°F 62°F (2006)
Min Temperature 22°F 24°F 2°F (1881)
Degree Days
Heating Degree Days 38 33  
Month to date heating degree days 118 99  
Since 1 July heating degree days 2826 3045  
Cooling Degree Days 0 0  
Month to date cooling degree days 0 0  
Year to date cooling degree days 0 0  
Moisture
Dew Point 20°F   
Average Humidity 80    
Maximum Humidity 96    
Minimum Humidity 63    
Precipitation
Precipitation 0.02 in 0.07 in 1.57 in (1939)
Month to date precipitation 0.03 0.22  
Year to date precipitation 2.85 3.38  
Wind
Wind Speed 3 mph   
Max Wind Speed 12 mph   
Max Gust Speed 15 mph   
Visibility 7 miles   
Events Snow   

Key: T is trace of precipitation, MM is missing value
Source: NWS Daily Summary
Time(EST)TemperatureDew PointHumidity Pressure Visibility Wind DirectionWind SpeedGust SpeedPrecipitationEvents Conditions
12:01 AM 24.8°F 21.2°F 86% 30.03 in 3.0 miles SSE 3.5 mph - 0.00 in Snow Light Snow
12:53 AM 25.0°F 21.9°F 88% 30.01 in 3.0 miles Calm Calm - 0.00 in Snow Light Snow
1:04 AM 24.8°F 21.2°F 86% 30.01 in 2.5 miles Calm Calm - 0.01 in Snow Light Snow
1:26 AM 24.8°F 21.2°F 86% 30.00 in 2.5 miles Calm Calm - 0.01 in Snow Light Snow
1:37 AM 24.8°F 21.2°F 86% 30.00 in 4.0 miles Calm Calm - 0.01 in Snow Light Snow
1:44 AM 24.8°F 21.2°F 86% 30.00 in 4.0 miles Calm Calm - 0.01 in Snow Light Snow
1:46 AM 24.8°F 21.2°F 86% 30.00 in 4.0 miles Calm Calm - 0.01 in Snow Light Snow
1:53 AM 24.1°F 21.9°F 91% 29.98 in 4.0 miles Calm Calm - 0.01 in Snow Light Snow
2:03 AM 24.8°F 21.2°F 86% 29.99 in 6.0 miles Calm Calm - 0.00 in   Overcast
2:16 AM 24.8°F 21.2°F 86% 29.98 in 6.0 miles Calm Calm - 0.00 in   Overcast
2:25 AM 24.8°F 21.2°F 86% 29.98 in 7.0 miles Calm Calm - 0.00 in   Overcast
2:53 AM 24.1°F 21.9°F 91% 29.96 in 8.0 miles Calm Calm - 0.00 in   Overcast
3:53 AM 24.1°F 21.9°F 91% 29.93 in 9.0 miles Calm Calm - N/A   Overcast
4:09 AM 24.8°F 21.2°F 86% 29.94 in 8.0 miles Calm Calm - N/A   Overcast
4:53 AM 23.0°F 21.0°F 92% 29.92 in 8.0 miles Calm Calm - N/A   Overcast
5:07 AM 23.0°F 21.2°F 93% 29.93 in 8.0 miles Calm Calm - N/A   Overcast
5:29 AM 23.0°F 21.2°F 93% 29.93 in 6.0 miles NE 4.6 mph - N/A   Overcast
5:53 AM 23.0°F 21.0°F 92% 29.93 in 6.0 miles NE 3.5 mph - N/A   Overcast
6:53 AM 23.0°F 19.9°F 88% 29.94 in 8.0 miles NE 3.5 mph - N/A   Overcast
7:22 AM 21.2°F 19.4°F 93% 29.94 in 7.0 miles Calm Calm - N/A   Mostly Cloudy
7:30 AM 23.0°F 19.4°F 86% 29.94 in 7.0 miles Calm Calm - N/A   Mostly Cloudy
7:53 AM 24.1°F 21.0°F 88% 29.94 in 7.0 miles Calm Calm - N/A   Overcast
8:07 AM 24.8°F 19.4°F 80% 29.95 in 7.0 miles North 3.5 mph - N/A   Overcast
8:22 AM 24.8°F 21.2°F 86% 29.95 in 7.0 miles ENE 3.5 mph - N/A   Overcast
8:53 AM 25.0°F 19.0°F 78% 29.94 in 10.0 miles ENE 3.5 mph - N/A   Overcast
9:53 AM 26.1°F 19.0°F 75% 29.92 in 10.0 miles North 5.8 mph - N/A   Mostly Cloudy
10:07 AM 24.8°F 17.6°F 74% 29.92 in 10.0 miles NNE 4.6 mph - N/A   Scattered Clouds
10:53 AM 27.0°F 19.0°F 72% 29.91 in 10.0 miles Calm Calm - N/A   Mostly Cloudy
11:48 AM 28.4°F 19.4°F 69% 29.88 in 10.0 miles Calm Calm - N/A   Mostly Cloudy
11:53 AM 27.0°F 19.9°F 75% 29.86 in 10.0 miles Calm Calm - N/A   Overcast
12:53 PM 28.9°F 19.9°F 69% 29.83 in 10.0 miles NW 4.6 mph - N/A   Overcast
1:28 PM 28.4°F 19.4°F 69% 29.83 in 10.0 miles NW 3.5 mph - N/A   Scattered Clouds
1:53 PM 30.0°F 19.9°F 66% 29.81 in 10.0 miles NW 5.8 mph - N/A   Mostly Cloudy
2:04 PM 28.4°F 19.4°F 69% 29.82 in 10.0 miles WNW 5.8 mph - N/A   Scattered Clouds
2:53 PM 30.0°F 19.9°F 66% 29.80 in 10.0 miles NW 8.1 mph - N/A   Partly Cloudy
3:53 PM 30.0°F 19.0°F 64% 29.80 in 10.0 miles NW 8.1 mph - N/A   Partly Cloudy
4:53 PM 28.9°F 18.0°F 64% 29.80 in 10.0 miles NW 4.6 mph - N/A   Partly Cloudy
5:53 PM 28.0°F 18.0°F 66% 29.80 in 10.0 miles West 3.5 mph - N/A   Clear
6:53 PM 27.0°F 18.0°F 69% 29.81 in 10.0 miles Calm Calm - N/A   Clear
7:53 PM 26.1°F 18.0°F 71% 29.82 in 9.0 miles Calm Calm - N/A   Clear
8:53 PM 26.1°F 19.0°F 75% 29.82 in 8.0 miles Calm Calm - N/A   Overcast
9:53 PM 26.1°F 19.9°F 78% 29.81 in 7.0 miles Calm Calm - N/A   Overcast
10:53 PM 27.0°F 21.9°F 81% 29.82 in 3.0 miles North 4.6 mph - 0.00 in Snow Light Snow
10:57 PM 26.6°F 21.2°F 80% 29.83 in 2.0 miles NNW 4.6 mph - 0.00 in Snow Light Snow
11:14 PM 26.6°F 21.2°F 80% 29.83 in 3.0 miles WNW 4.6 mph - 0.00 in Snow Light Snow
11:23 PM 26.6°F 21.2°F 80% 29.84 in 2.0 miles WNW 4.6 mph - 0.00 in Snow Light Snow
11:30 PM 26.6°F 23.0°F 86% 29.84 in 3.0 miles West 4.6 mph - 0.00 in Snow Light Snow
11:53 PM 28.0°F 21.9°F 78% 29.83 in 7.0 miles WNW 8.1 mph - 0.00 in   Overcast
Astronomy
Sunrise:07:06 AM (EST) Moon Rise:12:30 AM (EST)2/3
Sunset:05:20 PM (EST) Moon Set:10:56 AM (EST)2/3
Moon Phase
Feb. 03 Feb. 10 Feb. 17 Feb. 25 Mar. 04

Copyright © 2014 The Weather Underground, Inc.